Location: Burland Observatory
(39.4088°N, 105.4217°W)
Time: 17:02:10
(UTC-07:00)

SR - Pass Details

Date: 13 December 2019
Orbit: 574 x 882 km, 66.7° (Epoch: 19 January)

Event Time Altitude Azimuth Distance (km) Brightness Sun altitude
Rises 07:07:33 0° 160° (SSE) 3,201 ? -1.8°
Reaches altitude 10° 07:10:45 10° 139° (SE) 2,342 ? -1.2°
Maximum altitude 07:13:58 16° 103° (ESE) 2,005 ? -0.7°
Drops below altitude 10° 07:17:18 10° 66° (ENE) 2,456 ? -0.1°
Sets 07:20:45 0° 47° (NE) 3,438 ? 0.4°
